TimeCDT,TemperatureF,Dew PointF,Humidity,Sea Level PressureIn,VisibilityMPH,Wind Direction,Wind SpeedMPH,Gust SpeedMPH,PrecipitationIn,Events,Conditions,WindDirDegrees,DateUTC
12:15 AM,34.2,32.0,92,29.71,10.0,North,26.5,33.4,N/A,,Overcast,350,2013-03-10 06:15:00
12:35 AM,34.0,32.0,92,29.72,10.0,North,24.2,29.9,N/A,,Overcast,350,2013-03-10 06:35:00
12:55 AM,34.0,32.0,92,29.75,10.0,North,20.7,28.8,N/A,,Overcast,350,2013-03-10 06:55:00
1:15 AM,33.8,31.8,92,29.73,7.0,North,26.5,33.4,N/A,Snow,Light Snow,350,2013-03-10 07:15:00
1:35 AM,33.4,31.6,93,29.75,7.0,North,23.0,29.9,0.02,,Overcast,360,2013-03-10 07:35:00
1:55 AM,33.3,31.6,94,29.78,7.0,NNW,19.6,27.6,0.02,Snow,Light Snow,340,2013-03-10 07:55:00
3:15 AM,33.1,31.1,92,29.77,4.0,North,21.9,34.5,0.01,Snow,Light Snow,360,2013-03-10 08:15:00
3:35 AM,32.9,31.1,93,29.74,1.8,North,27.6,34.5,0.02,Snow,Light Snow,360,2013-03-10 08:35:00
3:55 AM,32.5,31.1,94,29.74,0.5,North,25.3,31.1,0.03,Snow,Heavy Snow,350,2013-03-10 08:55:00
4:15 AM,32.5,31.6,96,29.76,0.5,North,25.3,29.9,0.01,Snow,Snow,350,2013-03-10 09:15:00
4:35 AM,32.4,31.5,96,29.76,0.5,North,25.3,31.1,0.01,Snow,Snow,350,2013-03-10 09:35:00
4:55 AM,32.2,31.3,96,29.76,0.8,North,29.9,34.5,0.01,Snow,Snow,350,2013-03-10 09:55:00
5:15 AM,32.0,31.1,96,29.76,1.2,North,28.8,38.0,N/A,Snow,Light Snow,350,2013-03-10 10:15:00
5:35 AM,32.0,31.1,96,29.78,1.5,North,25.3,36.8,N/A,Snow,Light Snow,350,2013-03-10 10:35:00
5:55 AM,32.0,30.6,94,29.78,1.8,North,27.6,34.5,N/A,Snow,Light Snow,350,2013-03-10 10:55:00
6:15 AM,32.0,30.2,93,29.79,1.5,North,28.8,35.7,N/A,Snow,Light Snow,350,2013-03-10 11:15:00
6:35 AM,32.0,30.2,93,29.81,1.5,North,29.9,38.0,N/A,Snow,Light Snow,350,2013-03-10 11:35:00
7:35 AM,31.6,29.3,91,29.82,1.5,North,31.1,36.8,N/A,Snow,Light Snow,350,2013-03-10 12:35:00
7:55 AM,29.1,27.0,92,29.83,0.5,NNW,32.2,39.1,N/A,Snow,Light Snow,340,2013-03-10 12:55:00
8:15 AM,28.2,26.1,92,29.84,0.2,NNW,27.6,42.6,N/A,Snow,Snow,340,2013-03-10 13:15:00
8:35 AM,27.9,25.7,92,29.83,0.5,NNW,29.9,36.8,N/A,Snow,Light Snow,340,2013-03-10 13:35:00
8:55 AM,27.9,25.7,92,29.83,-9999.0,NNW,32.2,39.1,N/A,,Overcast,340,2013-03-10 13:55:00
9:15 AM,27.5,25.3,92,29.85,-9999.0,NNW,31.1,38.0,N/A,,Overcast,340,2013-03-10 14:15:00
9:35 AM,27.5,25.3,92,29.84,-9999.0,NNW,28.8,38.0,N/A,,Overcast,340,2013-03-10 14:35:00
9:55 AM,27.3,25.3,92,29.84,-9999.0,NNW,32.2,40.3,N/A,,Overcast,340,2013-03-10 14:55:00
10:15 AM,27.5,25.3,92,29.87,-9999.0,NNW,24.2,35.7,N/A,,Overcast,340,2013-03-10 15:15:00
10:35 AM,27.3,25.2,92,29.87,-9999.0,NNW,28.8,35.7,N/A,,Overcast,340,2013-03-10 15:35:00
10:55 AM,27.1,24.8,91,29.87,-9999.0,NNW,29.9,38.0,N/A,,Overcast,340,2013-03-10 15:55:00
11:15 AM,26.6,24.4,92,29.88,-9999.0,NNW,28.8,36.8,N/A,,Overcast,340,2013-03-10 16:15:00
11:35 AM,26.1,23.9,92,29.88,-9999.0,NNW,28.8,35.7,N/A,,Overcast,340,2013-03-10 16:35:00
11:55 AM,26.2,23.9,91,29.89,-9999.0,NNW,28.8,35.7,N/A,,Overcast,340,2013-03-10 16:55:00
12:15 PM,26.6,24.3,91,29.90,-9999.0,NNW,25.3,33.4,N/A,,Overcast,340,2013-03-10 17:15:00
12:35 PM,27.3,24.8,90,29.90,-9999.0,NNW,26.5,33.4,N/A,,Overcast,340,2013-03-10 17:35:00
12:55 PM,27.5,24.8,90,29.90,-9999.0,NNW,26.5,35.7,N/A,,Overcast,340,2013-03-10 17:55:00
1:15 PM,27.5,24.8,90,29.90,-9999.0,NNW,28.8,34.5,N/A,,Unknown,340,2013-03-10 18:15:00
1:35 PM,27.9,25.5,91,29.89,-9999.0,NNW,25.3,36.8,N/A,,Unknown,340,2013-03-10 18:35:00
1:55 PM,28.2,25.7,90,29.89,-9999.0,NNW,25.3,33.4,N/A,,Overcast,340,2013-03-10 18:55:00
2:15 PM,27.7,25.2,90,29.89,-9999.0,NNW,25.3,41.4,N/A,,Overcast,340,2013-03-10 19:15:00
2:35 PM,27.1,24.6,90,29.87,-9999.0,NNW,34.5,41.4,N/A,,Unknown,340,2013-03-10 19:35:00
2:55 PM,26.8,24.1,90,29.87,-9999.0,NNW,29.9,40.3,N/A,,Unknown,340,2013-03-10 19:55:00
3:15 PM,26.6,23.9,90,29.87,-9999.0,NNW,26.5,38.0,N/A,,Overcast,330,2013-03-10 20:15:00
3:35 PM,25.7,23.0,89,29.88,-9999.0,NNW,29.9,38.0,N/A,,Unknown,340,2013-03-10 20:35:00
3:55 PM,25.3,22.5,89,29.89,-9999.0,NNW,25.3,36.8,N/A,,Unknown,330,2013-03-10 20:55:00
4:15 PM,25.3,22.8,90,29.90,-9999.0,NNW,26.5,32.2,N/A,,Overcast,330,2013-03-10 21:15:00
4:35 PM,25.0,22.3,89,29.90,-9999.0,NNW,27.6,36.8,N/A,,Overcast,330,2013-03-10 21:35:00
4:55 PM,24.8,22.1,89,29.91,-9999.0,NNW,24.2,34.5,N/A,,Overcast,330,2013-03-10 21:55:00
5:15 PM,24.6,22.1,90,29.92,-9999.0,NNW,23.0,36.8,N/A,,Overcast,330,2013-03-10 22:15:00
5:35 PM,24.3,21.7,90,29.91,-9999.0,NNW,26.5,33.4,N/A,,Overcast,330,2013-03-10 22:35:00
5:55 PM,23.9,21.0,89,29.92,-9999.0,NNW,21.9,33.4,N/A,,Overcast,330,2013-03-10 22:55:00
6:15 PM,23.9,21.0,89,29.92,-9999.0,NNW,23.0,29.9,N/A,,Unknown,330,2013-03-10 23:15:00
6:35 PM,23.9,21.2,89,29.93,-9999.0,NW,24.2,28.8,N/A,,Overcast,320,2013-03-10 23:35:00
6:55 PM,23.5,20.8,89,29.94,-9999.0,NW,23.0,31.1,N/A,,Overcast,320,2013-03-10 23:55:00
7:15 PM,23.5,20.8,89,29.94,-9999.0,NNW,20.7,28.8,N/A,,Overcast,330,2013-03-11 00:15:00
7:35 PM,23.5,21.0,90,29.95,-9999.0,NW,21.9,29.9,N/A,,Overcast,320,2013-03-11 00:35:00
7:55 PM,23.4,21.0,91,29.94,-9999.0,NNW,24.2,34.5,N/A,,Overcast,330,2013-03-11 00:55:00
8:15 PM,23.4,21.0,91,29.95,-9999.0,NW,21.9,28.8,N/A,,Overcast,320,2013-03-11 01:15:00
8:35 PM,23.5,21.0,90,29.95,-9999.0,NW,20.7,28.8,N/A,,Overcast,320,2013-03-11 01:35:00
8:55 PM,23.4,21.0,91,29.95,-9999.0,NW,24.2,29.9,N/A,,Overcast,320,2013-03-11 01:55:00
9:15 PM,23.4,21.0,91,29.95,-9999.0,NNW,19.6,29.9,N/A,,Overcast,330,2013-03-11 02:15:00
9:35 PM,23.5,21.2,91,29.95,-9999.0,NNW,23.0,27.6,N/A,,Overcast,330,2013-03-11 02:35:00
9:55 PM,23.7,21.2,90,29.96,-9999.0,NNW,18.4,28.8,N/A,,Overcast,330,2013-03-11 02:55:00
10:15 PM,23.9,21.2,89,29.96,-9999.0,NNW,17.3,25.3,N/A,,Overcast,330,2013-03-11 03:15:00
10:35 PM,23.7,21.2,90,29.96,-9999.0,NNW,20.7,25.3,N/A,,Overcast,330,2013-03-11 03:35:00
10:55 PM,23.7,21.2,90,29.96,-9999.0,NNW,20.7,25.3,N/A,,Overcast,330,2013-03-11 03:55:00
11:15 PM,23.9,21.0,89,29.96,-9999.0,NNW,18.4,24.2,N/A,,Overcast,330,2013-03-11 04:15:00
11:35 PM,23.7,20.7,88,29.96,-9999.0,NNW,17.3,23.0,N/A,,Overcast,330,2013-03-11 04:35:00
11:55 PM,23.7,20.1,86,29.96,-9999.0,NNW,17.3,23.0,N/A,,Overcast,330,2013-03-11 04:55:00
12:15 AM,23.7,19.9,85,29.95,-9999.0,NNW,17.3,23.0,N/A,,Overcast,330,2013-03-11 05:15:00
12:35 AM,23.7,19.8,85,29.95,-9999.0,NNW,18.4,23.0,N/A,,Overcast,330,2013-03-11 05:35:00
12:55 AM,23.5,19.4,84,29.95,-9999.0,NNW,16.1,25.3,N/A,,Overcast,330,2013-03-11 05:55:00